Tracking 20712 objects as of 29-May-2020
HD Live streaming from Space Station
objects crossing your sky now

DRAGON CRS-12 DEBRIS


DRAGON CRS-12 DEBRIS is no longer on orbit


NORAD ID: 42905
Int'l Code: 2017-045B
Perigee: N/A
Apogee: N/A
Inclination: N/A
Period: N/A
Semi major axis: N/A
RCS: N/A
Launch date: August 14, 2017
Source: United States (US)
Launch site: AIR FORCE EASTERN TEST RANGE (AFETR)
Decay date: 2017-08-20

Note: This is SATELLITE DEBRIS
aabbcc
Your satellite tracking list
Your tracking list is empty




NASA's NSSDC Master Catalog

Two Line Element Set (TLE):
1 42905U 17045B   17229.86633010  .04770594  11872-4  24390-2 0  9994
2 42905  51.6545  89.7477 0066019  58.0614 321.1207 16.14361939   500
Source of the keplerian elements: AFSPC